[[{"header":{"parameterUnit":"m.s-1","parameterCategory":1,"la1":30.2991,"la2":30.254,"lo1":-89.0895,"lo2":-89.0444,"dy":0.0017,"dx":0.0017,"nx":28,"ny":28,"refTime":"2025-08-14T03:00:00:Z","depth":0,"parameterNumber":2,"parameterNumberName":"U-component_of_WINDS"},"data":[0,0,0,0,0,0,0,0,0,0,0,0,0,0,0,0,0,0,0,0,0,0,0,0,0,0,0,0,0,0,0,0,0,0,0,0,0,0,0,0,0,0,0,0,0,0,0,0,0,0,0,0,0,0,0,0,0,0,4.7234,4.7236,0,4.7402,4.7404,4.7406,4.7354,4.735,4.7346,4.7343,4.7517,4.7525,4.7533,0,0,0,0,0,0,0,0,0,0,0,0,0,4.687,4.6877,4.7234,4.7236,4.7238,4.7401,4.7404,4.7406,4.7354,4.735,4.7345,4.7341,4.7514,4.7524,4.7533,0,0,0,0,0,0,0,0,0,0,0,0,0,4.7032,4.6879,4.7234,4.7232,4.7233,4.7401,4.7404,4.7407,4.7355,4.735,4.7344,4.7339,4.7511,4.7523,4.7535,4.7715,0,0,4.7571,4.7576,0,0,0,0,0,0,0,0,4.7023,4.7045,4.723,4.7232,4.7234,4.7351,4.7339,4.751,4.7356,4.7309,4.7343,4.7337,4.7466,4.7482,4.7525,4.7723,4.773,4.7572,4.7579,4.7584,4.7588,0,0,0,0,0,0,0,4.7012,4.7038,4.73,4.7233,4.7235,4.7223,4.724,4.7371,4.7416,4.7313,4.7309,4.733,4.7466,4.7513,4.7528,4.7733,4.7572,4.7582,4.759,4.7594,4.8085,4.8091,0,0,0,0,0,0,4.6999,4.7029,4.7295,4.7305,4.7113,4.7234,4.7253,4.7319,4.7414,4.7423,4.7334,4.7327,4.7496,4.7515,4.7534,4.775,4.7584,4.7595,4.7602,4.8079,4.8087,4.8093,0,0,0,0,0,0,4.6991,4.7023,4.7288,4.7166,4.7199,4.7246,4.732,4.7325,4.7372,4.743,4.7438,4.7374,4.7492,4.7518,4.767,4.7755,4.7601,4.7612,4.8072,4.8082,4.809,4.8184,0,0,0,0,0,0,4.6981,4.7021,4.7089,4.7168,4.7206,4.7421,4.7326,4.7332,4.7393,4.7384,4.7469,4.7478,4.749,4.7652,4.7681,4.7769,4.7621,4.8065,4.8076,4.8087,4.8173,4.8194,4.8213,0,0,0,0,0,4.6968,4.711,4.7093,4.7125,4.7293,4.7426,4.7447,4.7457,4.74,4.7469,4.7506,4.7476,4.7741,4.7668,4.7701,4.7793,4.806,4.8073,4.8086,4.8164,4.819,4.8212,0,0,0,0,0,0,4.7041,4.712,4.7102,4.7274,4.7343,4.7417,4.7505,4.7485,4.7573,4.7562,4.757,4.759,4.7746,4.7785,4.7702,4.7971,4.7892,4.7912,4.794,4.7966,4.7985,4.7972,4.7631,0,0,0,0,0,4.7077,4.7178,4.7242,4.7387,4.7423,4.7458,4.7516,4.7518,4.759,4.762,4.7668,4.774,4.7839,4.7905,4.8,4.8179,4.8196,4.8258,4.8278,4.8294,4.8311,4.8407,4.8435,4.8137,4.8136,4.8136,0,0,4.7152,4.7208,4.7272,4.7403,4.7457,4.7561,4.7483,4.7597,4.7675,4.7637,4.7783,4.7821,4.7902,4.8068,4.8143,4.8105,4.8398,4.8311,4.8323,4.8332,4.8424,4.8452,4.8477,4.8146,4.8144,4.8142,0,0,4.7343,4.7396,4.7521,4.7577,4.7659,4.7681,4.7711,4.7788,4.7811,4.7958,4.7931,4.8024,4.8196,4.8254,4.8306,4.8517,4.8492,4.8548,4.8652,4.8745,4.8769,4.879,4.8864,4.889,4.8565,4.8566,4.8566,0,4.7426,4.7582,4.7589,4.7705,4.7763,4.7733,4.786,4.7914,4.8024,4.8064,4.802,4.8234,4.8286,4.8464,4.8516,4.856,4.8594,4.8538,4.8765,4.8786,4.8806,4.8876,4.8904,4.8572,4.8571,4.857,4.857,0,4.768,4.7788,4.788,4.7985,4.8054,4.8175,4.82,4.8269,4.8265,4.8292,4.844,4.8502,4.8608,4.8651,4.8648,4.8829,4.8802,4.8762,4.8682,4.884,4.8906,4.8934,4.858,4.8578,4.8576,4.8575,0,0,4.7921,4.8027,4.8061,4.8107,4.8195,4.8279,4.8399,4.8502,4.856,4.8637,4.8737,4.8882,4.8844,4.8904,4.8907,4.8989,4.9151,4.8938,4.894,4.8974,4.9352,4.9381,4.9412,4.9135,4.914,4.9144,4.9344,0,4.8117,4.8326,4.8336,4.8526,4.8626,4.8598,4.8702,4.8768,4.8796,4.8885,4.8917,4.9019,4.8962,4.8997,4.9078,4.9114,4.9226,4.91,4.9228,4.9232,4.9207,4.9447,4.9478,4.9664,4.9371,4.9375,4.9378,0,4.8374,4.8457,4.8657,4.873,4.8772,4.8865,4.8959,4.9045,4.9118,4.9133,4.9199,4.919,4.9312,4.9229,4.9397,4.9311,4.9364,4.9389,4.9397,4.9408,4.9314,4.9463,4.9724,4.9751,4.942,4.9416,4.9413,0,4.8528,4.869,4.883,4.8871,4.896,4.9026,4.9066,4.9134,4.9194,4.9277,4.9316,4.9413,4.9465,4.954,4.9558,4.9496,4.9725,4.9644,4.974,4.974,4.9789,4.9785,5.006,4.9826,4.9825,4.9825,4.9824,0,4.8745,4.8869,4.89,4.8986,4.9123,4.9133,4.9268,4.9304,4.9364,4.9457,4.944,4.9527,4.9545,4.9636,4.9651,4.9787,4.9812,4.9827,4.9829,4.9827,4.9825,4.9861,4.9848,4.9832,4.9831,4.9829,4.9828,0,4.894,4.8966,4.9116,4.9187,4.9208,4.9306,4.9367,4.9449,4.9475,4.9592,4.962,4.9661,4.9768,4.9792,4.992,4.9929,5.009,5.008,5.0064,5.0063,5.0158,5.0148,5.0464,5.0505,5.0245,5.0248,5.025,0,4.9076,4.917,4.9251,4.9311,4.9353,4.9451,4.9512,4.9526,4.959,4.968,4.9752,4.9856,4.9939,5.011,5.0152,5.0248,5.024,5.0344,5.0254,5.0249,5.024,5.0233,5.0242,5.0361,5.0363,5.0366,5.0368,0,4.9315,4.9323,4.9412,4.9505,4.9578,4.9653,4.9724,4.9774,4.9797,4.9871,4.9978,5.0043,5.0172,5.0275,5.0372,5.0413,5.0395,5.0396,5.0423,5.0421,5.0408,5.0415,5.0109,5.0388,5.0386,5.0384,5.0383,5.0383,4.9483,4.9565,4.9634,4.9733,4.9787,4.9854,4.9934,4.997,5.0059,5.0164,5.0167,5.0284,5.0354,5.0482,5.0529,5.0621,5.0589,5.0628,5.0638,5.0647,5.0655,5.0394,5.0639,5.0638,5.0638,5.0637,5.0637,0,4.972,4.9762,4.9854,4.9952,5.003,5.0005,5.0082,5.0149,5.0252,5.0319,5.0401,5.0524,5.0624,5.0672,5.0771,5.0835,5.0829,5.086,5.0855,5.0864,5.0679,5.0645,5.0863,5.0863,5.0863,5.0863,5.0863,5.0863,4.9852,4.9987,5.0003,5.0166,5.0208,5.0321,5.0367,5.0428,5.0481,5.0619,5.0701,5.0732,5.0792,5.0894,5.0984,5.0996,5.1032,5.1068,5.1075,5.0901,5.0878,5.0856,5.0823,5.1076,5.1076,5.1253,5.1254,5.1256]},{"header":{"parameterUnit":"m.s-1","parameterCategory":1,"la1":30.2991,"la2":30.254,"lo1":-89.0895,"lo2":-89.0444,"dy":0.0017,"dx":0.0017,"nx":28,"ny":28,"refTime":"2025-08-14T03:00:00:Z","depth":0,"parameterNumber":3,"parameterNumberName":"V-component_of_WINDS"},"data":[0,0,0,0,0,0,0,0,0,0,0,0,0,0,0,0,0,0,0,0,0,0,0,0,0,0,0,0,0,0,0,0,0,0,0,0,0,0,0,0,0,0,0,0,0,0,0,0,0,0,0,0,0,0,0,0,0,0,2.0337,2.0338,0,2.0446,2.0447,2.0448,2.0455,2.0454,2.0453,2.0452,2.0562,2.0566,2.057,0,0,0,0,0,0,0,0,0,0,0,0,0,2.0132,2.0136,2.0336,2.0338,2.0339,2.0446,2.0447,2.0449,2.0456,2.0454,2.0453,2.0451,2.0561,2.0566,2.0571,0,0,0,0,0,0,0,0,0,0,0,0,0,2.0229,2.0137,2.0336,2.0356,2.0358,2.0445,2.0447,2.0449,2.0456,2.0454,2.0452,2.0451,2.0559,2.0565,2.0571,2.0646,0,0,2.059,2.0593,0,0,0,0,0,0,0,0,2.0223,2.0236,2.0351,2.0354,2.0358,2.0435,2.0416,2.0515,2.0456,2.0419,2.0452,2.045,2.0521,2.053,2.0555,2.0651,2.0656,2.059,2.0594,2.0597,2.0599,0,0,0,0,0,0,0,2.0217,2.0232,2.038,2.0353,2.0357,2.0358,2.037,2.0434,2.0479,2.0422,2.0423,2.0436,2.0523,2.0549,2.0558,2.0657,2.059,2.0596,2.06,2.0602,2.082,2.0822,0,0,0,0,0,0,2.0206,2.0226,2.0376,2.0383,2.0285,2.0363,2.0377,2.0412,2.0478,2.0487,2.0437,2.0436,2.0539,2.055,2.0561,2.0653,2.0597,2.0603,2.0606,2.0818,2.082,2.0823,0,0,0,0,0,0,2.0202,2.022,2.0372,2.0305,2.0324,2.0369,2.0409,2.0415,2.0442,2.049,2.0498,2.0456,2.0538,2.0553,2.0625,2.0657,2.0605,2.0611,2.0815,2.0819,2.0822,2.0838,0,0,0,0,0,0,2.0196,2.0218,2.0248,2.0305,2.0328,2.0434,2.0411,2.0419,2.0452,2.0451,2.051,2.0518,2.0538,2.0616,2.0631,2.0665,2.0616,2.0813,2.0817,2.0821,2.0834,2.0841,2.0847,0,0,0,0,0,2.0189,2.0247,2.0249,2.0267,2.0366,2.0436,2.0449,2.0472,2.0455,2.0485,2.0515,2.0516,2.0651,2.0623,2.064,2.0676,2.0811,2.0816,2.082,2.0832,2.084,2.0846,0,0,0,0,0,0,2.0192,2.0255,2.0258,2.0337,2.0381,2.0437,2.0475,2.048,2.0529,2.0526,2.0552,2.0565,2.0636,2.0663,2.0631,2.0752,2.0729,2.0737,2.0732,2.074,2.0746,2.0738,2.0621,0,0,0,0,0,2.0201,2.0254,2.0307,2.0371,2.0393,2.043,2.0462,2.0476,2.0522,2.0541,2.0577,2.0622,2.0674,2.0708,2.0759,2.0838,2.0851,2.0871,2.0877,2.0882,2.0889,2.0933,2.0942,2.0838,2.0838,2.0838,0,0,2.0222,2.0264,2.0295,2.0373,2.0409,2.0462,2.0446,2.0503,2.0543,2.0549,2.062,2.0648,2.0699,2.0775,2.081,2.08,2.0921,2.0888,2.0892,2.0896,2.0939,2.0948,2.0957,2.0842,2.0841,2.0841,0,0,2.0288,2.0324,2.0382,2.0419,2.0473,2.0497,2.0511,2.0567,2.0586,2.0657,2.0663,2.071,2.08,2.0837,2.0867,2.0945,2.0947,2.0961,2.0993,2.1035,2.1043,2.1051,2.1079,2.1088,2.0968,2.0968,2.0968,0,2.0307,2.0388,2.0411,2.0469,2.0502,2.0511,2.057,2.0604,2.0672,2.0695,2.0682,2.0796,2.0831,2.0915,2.0934,2.0958,2.0975,2.0955,2.104,2.1048,2.1055,2.1082,2.1093,2.0969,2.0969,2.0969,2.0969,0,2.0408,2.0464,2.0505,2.0571,2.0609,2.0667,2.0698,2.0734,2.0744,2.077,2.0842,2.0884,2.0944,2.0965,2.0975,2.1051,2.1043,2.1035,2.1012,2.1066,2.1092,2.1102,2.0971,2.0971,2.097,2.097,0,0,2.0479,2.0558,2.0572,2.0602,2.0663,2.0706,2.0764,2.0823,2.0853,2.0899,2.0948,2.1024,2.1017,2.1051,2.1066,2.1103,2.1162,2.1091,2.1092,2.1102,2.1247,2.1253,2.1265,2.1163,2.1166,2.1167,2.1243,0,2.0551,2.0655,2.0678,2.0767,2.0818,2.0827,2.0877,2.092,2.0945,2.0992,2.1019,2.1072,2.1059,2.108,2.1117,2.1147,2.1192,2.1142,2.1209,2.1211,2.1196,2.1278,2.1284,2.1354,2.1253,2.1255,2.1256,0,2.065,2.0699,2.0793,2.0847,2.087,2.0914,2.097,2.1015,2.1063,2.1078,2.1117,2.1127,2.1187,2.1161,2.1243,2.1209,2.1237,2.1256,2.1259,2.1266,2.1237,2.1288,2.1377,2.1387,2.1272,2.1271,2.127,0,2.0692,2.0782,2.085,2.0875,2.094,2.0971,2.0999,2.1045,2.1079,2.1127,2.1149,2.1204,2.1233,2.1275,2.13,2.1279,2.138,2.1356,2.1394,2.1393,2.1415,2.1413,2.151,2.1433,2.1433,2.1433,2.1432,0,2.077,2.0828,2.087,2.0912,2.0976,2.1001,2.1064,2.1092,2.1132,2.1179,2.119,2.1234,2.1263,2.1311,2.133,2.1395,2.1409,2.1422,2.1427,2.1422,2.142,2.1441,2.1437,2.1435,2.1435,2.1434,2.1434,0,2.0828,2.0859,2.0934,2.0989,2.1004,2.1049,2.1095,2.1136,2.1161,2.122,2.1235,2.1274,2.1331,2.136,2.143,2.1443,2.1516,2.1517,2.15,2.1502,2.1538,2.1535,2.1652,2.1669,2.158,2.1581,2.1582,0,2.0877,2.0921,2.0981,2.1013,2.1042,2.1094,2.1129,2.1155,2.1191,2.1248,2.1282,2.1339,2.1387,2.1476,2.1511,2.1564,2.1567,2.1604,2.1575,2.1568,2.1568,2.1565,2.1569,2.161,2.1611,2.1611,2.1612,0,2.0959,2.0972,2.1022,2.1077,2.1119,2.1163,2.1207,2.1233,2.1266,2.1306,2.1364,2.1401,2.1473,2.1529,2.1585,2.1613,2.1618,2.1621,2.1632,2.1628,2.1616,2.1623,2.1515,2.1618,2.1617,2.1617,2.1617,2.1616,2.1014,2.1053,2.1102,2.1157,2.1193,2.1234,2.1275,2.1305,2.1354,2.1416,2.1428,2.1489,2.1535,2.1612,2.1641,2.1689,2.1681,2.1698,2.1702,2.1706,2.1708,2.1608,2.17,2.1699,2.1699,2.1699,2.1699,0,2.1096,2.1128,2.1178,2.124,2.1283,2.1285,2.1333,2.1369,2.1424,2.1467,2.1513,2.158,2.1635,2.1673,2.1729,2.176,2.1763,2.1773,2.1771,2.1778,2.1712,2.1697,2.177,2.177,2.177,2.177,2.177,2.177,2.1144,2.1212,2.1231,2.1316,2.1347,2.1408,2.1436,2.1473,2.1508,2.1582,2.1628,2.1653,2.1694,2.1752,2.1802,2.1812,2.1832,2.1842,2.1852,2.179,2.1782,2.1775,2.1761,2.1846,2.1846,2.1914,2.1914,2.1915]}]]